Tracking 26544 objects as of 9-Dec-2022
HD Live streaming from Space Station
objects crossing your sky now

STARLINK-4685

Track STARLINK-4685 now!
10-day predictions
STARLINK-4685 is classified as:


NORAD ID: 53709
Int'l Code: 2022-107K
Perigee: 551.1 km
Apogee: 552.6 km
Inclination: 53.2 °
Period: 95.5 minutes
Semi major axis: 6922 km
RCS: Unknown
Launch date: September 5, 2022
Source: United States (US)
Launch site: AIR FORCE EASTERN TEST RANGE (AFETR)
aabbcc
Your satellite tracking list
Your tracking list is empty




NASA's NSSDC Master Catalog

Two Line Element Set (TLE):
1 53709U 22107K   22342.79879627  .00003114  00000-0  22297-3 0  9998
2 53709  53.2166 176.5878 0001115  32.9974 327.1087 15.07223544 15303
Source of the keplerian elements: AFSPC